Tacoma, WA
on Tuesday, January 15, 2013

Tuesday
Previous Day Next Day
Daily Summary
 ActualAverage (KSEA)Record (KSEA)
Temperature
Mean Temperature °F 42°F  
Max Temperature 43°F 47°F 58°F (1974)
Min Temperature 24°F 37°F 15°F (1950)
Degree Days
Heating Degree Days 31 23  
Month to date heating degree days 353  
Since 1 July heating degree days 2291  
Cooling Degree Days 0 0  
Month to date cooling degree days 0  
Year to date cooling degree days 0  
Moisture
Dew Point 30°F   
Average Humidity 91    
Maximum Humidity 100    
Minimum Humidity 65    
Precipitation
Precipitation 0.00 in 0.19 in 1.68 in (1996)
Month to date precipitation 2.83  
Year to date precipitation 2.83  
Snow
Snow 0.00 in in 3.60 in (1969)
Month to date snowfall  
Since 1 July snowfall  
Snow Depth in   
Wind
Wind Speed 2 mph   
Max Wind Speed 9 mph   
Max Gust Speed mph   
Visibility 10 miles   
Events     

Key: T is trace of precipitation, MM is missing value
Source: NWS Daily Summary
Time(PST)TemperatureDew PointHumidity Pressure Visibility Wind DirectionWind SpeedGust SpeedPrecipitationEvents Conditions
12:58 AM 29.1°F 28.9°F 99% 30.60 in 10.0 miles Calm Calm - N/A   Overcast
1:58 AM 28.9°F 28.4°F 98% 30.63 in 10.0 miles SSE 1.2 mph - N/A   Overcast
2:28 AM 28.4°F 28.4°F 100% 30.61 in 10.0 miles Calm Calm - N/A   Overcast
2:58 AM 29.7°F 29.1°F 98% 30.63 in 10.0 miles Calm Calm - N/A   Overcast
3:58 AM 30.4°F 29.8°F 98% 30.64 in 10.0 miles Calm Calm - N/A   Overcast
4:03 AM 32.0°F 30.2°F 93% 30.62 in 10.0 miles Calm Calm - N/A   Overcast
4:08 AM 32.0°F 30.2°F 93% 30.62 in 10.0 miles Calm Calm - N/A   Overcast
4:58 AM 31.1°F 30.4°F 97% 30.65 in 10.0 miles NNE 1.2 mph - N/A   Overcast
5:04 AM 32.0°F 30.2°F 93% 30.62 in 10.0 miles Calm Calm - N/A   Overcast
5:19 AM 32.0°F 30.2°F 93% 30.62 in 10.0 miles SW 1.2 mph - N/A   Overcast
5:34 AM 32.0°F 32.0°F 100% 30.62 in 10.0 miles South 3.5 mph - N/A   Overcast
5:44 AM 32.0°F 32.0°F 100% 30.62 in 10.0 miles South 2.3 mph - N/A   Overcast
5:54 AM 32.0°F 32.0°F 100% 30.63 in 10.0 miles South 2.3 mph - N/A   Overcast
5:58 AM 32.0°F 32.0°F 100% 30.66 in 10.0 miles South 3.5 mph - N/A   Overcast
6:36 AM 32.0°F 32.0°F 100% 30.64 in 10.0 miles SSE 1.2 mph - N/A   Overcast
6:58 AM 31.5°F 30.9°F 98% 30.68 in 10.0 miles South 2.3 mph - N/A   Overcast
7:58 AM 31.5°F 30.9°F 98% 30.69 in 10.0 miles Calm Calm - N/A   Overcast
8:58 AM 32.0°F 31.1°F 96% 30.71 in 10.0 miles South 1.2 mph - N/A   Overcast
9:58 AM 33.8°F 32.0°F 93% 30.71 in 10.0 miles SW 1.2 mph - N/A   Overcast
10:13 AM 37.4°F 32.0°F 81% 30.68 in 10.0 miles Calm Calm - N/A   Scattered Clouds
10:58 AM 39.7°F 34.0°F 80% 30.71 in 10.0 miles North 4.6 mph - N/A   Partly Cloudy
11:58 AM 41.4°F 34.3°F 76% 30.70 in 10.0 miles North 6.9 mph - N/A   Partly Cloudy
12:58 PM 43.0°F 33.6°F 70% 30.69 in 10.0 miles North 9.2 mph - N/A   Partly Cloudy
1:58 PM 43.5°F 32.4°F 65% 30.69 in 10.0 miles NNE 8.1 mph - N/A   Clear
2:58 PM 43.0°F 32.2°F 66% 30.70 in 10.0 miles North 8.1 mph - N/A   Clear
3:58 PM 41.7°F 32.4°F 69% 30.70 in 10.0 miles NNE 6.9 mph - N/A   Clear
4:58 PM 38.7°F 31.3°F 75% 30.69 in 10.0 miles NNE 2.3 mph - N/A   Clear
5:58 PM 36.3°F 30.9°F 81% 30.69 in 10.0 miles Calm Calm - N/A   Clear
6:58 PM 30.9°F 30.0°F 96% 30.70 in 10.0 miles Calm Calm - N/A   Clear
7:58 PM 29.3°F 28.9°F 99% 30.70 in 10.0 miles South 1.2 mph - N/A   Clear
8:58 PM 27.3°F 27.1°F 99% 30.71 in 10.0 miles SSW 3.5 mph - N/A   Clear
9:58 PM 27.1°F 26.8°F 99% 30.70 in 10.0 miles SSE 3.5 mph - N/A   Clear
10:58 PM 25.0°F 24.4°F 98% 30.69 in 9.0 miles SSE 2.3 mph - N/A   Clear
11:58 PM 24.6°F 24.1°F 98% 30.69 in 9.0 miles SSW 2.3 mph - N/A   Clear
Moon Phase
Jan. 15 Jan. 18 Jan. 26 Feb. 03 Feb. 10
Sunrise:07:51 AM (PST) Moon Rise:09:39 AM (PST)1/15
Sunset:04:47 PM (PST) Moon Set:10:06 PM (PST)1/15

Copyright © 2014 The Weather Underground, Inc.